DL1WER-13 Weather Reports


time (UTC)temp
C
wind
direction
speed
KPH
gust
KPH
rain 1hr
cm
rain 24hr
cm
rain mn
cm
humidity
%
barometer
mb
20260502123019 24 311 3.2 11.3 0.00 0.00 0.00 24 1046.2
20260502122018 24 287 3.2 6.4 0.00 0.00 0.00 27 1046.4
20260502121019 23 174 6.4 9.7 0.00 0.00 0.00 26 1046.4
20260502115018 23 342 4.8 12.9 0.00 0.00 0.00 26 1046.8
20260502114018 23 264 4.8 11.3 0.00 0.00 0.00 28 1046.8
20260502113019 22 319 4.8 8.0 0.00 0.00 0.00 29 1047.1
20260502112018 22 315 4.8 11.3 0.00 0.00 0.00 30 1047.2
20260502111018 23 313 3.2 11.3 0.00 0.00 0.00 28 1046.9
20260502110019 22 195 4.8 9.7 0.00 0.00 0.00 30 1047.3
20260502105019 23 348 4.8 12.9 0.00 0.00 0.00 27 1047.5
20260502104019 23 307 3.2 6.4 0.00 0.00 0.00 28 1047.4
20260502103019 22 347 4.8 11.3 0.00 0.00 0.00 28 1047.5
20260502102018 22 229 6.4 11.3 0.00 0.00 0.00 26 1047.9
20260502101019 23 132 1.6 6.4 0.00 0.00 0.00 30 1047.7
20260502091019 20 348 4.8 11.3 0.00 0.00 0.00 35 1048.0
20260502071019 15 301 3.2 6.4 0.00 0.00 0.00 55 1048.7
20260502070019 15 321 3.2 4.8 0.00 0.00 0.00 57 1048.5
20260502065018 14 263 1.6 3.2 0.00 0.00 0.00 61 1048.7
20260502064018 12 299 1.6 4.8 0.00 0.00 0.00 65 1048.9
20260502063019 11 315 1.6 3.2 0.00 0.00 0.00 67 1048.8
20260502062018 10 308 1.6 3.2 0.00 0.00 0.00 70 1048.9
20260502061018 9 272 3.2 4.8 0.00 0.00 0.00 70 1049.1
20260502060019 8 293 3.2 6.4 0.00 0.00 0.00 70 1048.7
20260502055019 7 301 3.2 4.8 0.00 0.00 0.00 70 1048.6
20260502054018 7 310 1.6 3.2 0.00 0.00 0.00 72 1048.8
20260502053019 6 338 4.8 6.4 0.00 0.00 0.00 79 1048.9
20260502052018 6 323 3.2 6.4 0.00 0.00 0.00 80 1048.9
20260502051018 5 290 3.2 6.4 0.00 0.00 0.00 80 1048.7
20260502050019 5 312 1.6 4.8 0.00 0.00 0.00 81 1048.8
20260502045018 5 296 3.2 6.4 0.00 0.00 0.00 82 1048.9
20260502044019 5 325 1.6 3.2 0.00 0.00 0.00 84 1048.7
20260502043019 3 344 3.2 6.4 0.00 0.00 0.00 85 1048.8
20260502042018 3 282 1.6 4.8 0.00 0.00 0.00 84 1048.8
20260502041019 3 331 1.6 6.4 0.00 0.00 0.00 85 1048.7
20260502040019 3 308 1.6 4.8 0.00 0.00 0.00 84 1048.7
20260502035018 3 293 1.6 4.8 0.00 0.00 0.00 84 1048.7
20260502034018 3 346 1.6 4.8 0.00 0.00 0.00 83 1048.7
20260502033018 3 277 1.6 3.2 0.00 0.00 0.00 83 1048.7
20260502032018 3 321 1.6 3.2 0.00 0.00 0.00 83 1048.6
20260502031018 4 329 0.0 3.2 0.00 0.00 0.00 83 1048.7
20260502030019 4 312 0.0 3.2 0.00 0.00 0.00 83 1048.9
20260502025018 4 0 0.0 1.6 0.00 0.00 0.00 82 1048.8
20260502024018 5 244 0.0 3.2 0.00 0.00 0.00 82 1048.8
20260502023018 5 273 0.0 3.2 0.00 0.00 0.00 82 1048.8
20260502022018 5 307 0.0 3.2 0.00 0.00 0.00 82 1049.0
20260502021019 5 253 1.6 3.2 0.00 0.00 0.00 82 1048.8
20260502020018 5 271 1.6 3.2 0.00 0.00 0.00 82 1048.8
20260502015018 5 170 0.0 3.2 0.00 0.00 0.00 81 1049.1
20260502014019 5 291 0.0 3.2 0.00 0.00 0.00 81 1048.8
20260502013018 6 270 0.0 3.2 0.00 0.00 0.00 82 1049.1
20260502012018 6 329 0.0 3.2 0.00 0.00 0.00 81 1048.9
20260502011018 6 0 0.0 0.0 0.00 0.00 0.00 80 1049.0
20260502010020 6 172 0.0 3.2 0.00 0.00 0.00 80 1049.1
20260502005018 6 162 1.6 3.2 0.00 0.00 0.00 81 1049.1
20260502004018 6 290 0.0 3.2 0.00 0.00 0.00 80 1049.1
20260502003020 6 0 0.0 0.0 0.00 0.00 0.00 79 1049.4
20260502002018 6 198 0.0 3.2 0.00 0.00 0.00 78 1049.3
20260502001018 7 149 0.0 3.2 0.00 0.00 0.00 77 1049.3
20260502000019 7 149 0.0 3.2 0.00 0.00 0.00 76 1049.3
20260501235018 7 0 0.0 0.0 0.00 0.00 0.00 70 1049.7
20260501234018 7 141 1.6 3.2 0.00 0.00 0.00 70 1049.6
20260501233018 8 225 0.0 3.2 0.00 0.00 0.00 67 1049.5
20260501232018 8 198 0.0 3.2 0.00 0.00 0.00 68 1049.5
20260501231018 8 135 0.0 3.2 0.00 0.00 0.00 66 1049.6
20260501230018 8 0 0.0 0.0 0.00 0.00 0.00 63 1049.6
20260501225018 8 172 0.0 3.2 0.00 0.00 0.00 62 1049.6
20260501224017 9 143 1.6 3.2 0.00 0.00 0.00 62 1049.8
20260501223019 10 141 0.0 3.2 0.00 0.00 0.00 61 1049.9
20260501222018 10 219 0.0 3.2 0.00 0.00 0.00 60 1049.7
20260501221017 10 182 1.6 3.2 0.00 0.00 0.00 60 1050.0
20260501220023 10 158 1.6 3.2 0.00 0.00 0.00 60 1049.9
20260501215019 11 159 1.6 4.8 0.00 0.00 0.00 57 1049.8
20260501214018 11 225 0.0 3.2 0.00 0.00 0.00 53 1049.8
20260501213019 12 225 1.6 3.2 0.00 0.00 0.00 52 1049.9
20260501212019 12 225 1.6 4.8 0.00 0.00 0.00 52 1049.8
20260501211019 12 225 1.6 3.2 0.00 0.00 0.00 51 1050.0
20260501210019 12 230 1.6 4.8 0.00 0.00 0.00 47 1050.1
20260501205020 13 239 1.6 4.8 0.00 0.00 0.00 46 1050.0
20260501204018 13 233 1.6 6.4 0.00 0.00 0.00 45 1049.9
20260501203019 13 244 1.6 3.2 0.00 0.00 0.00 45 1050.2
20260501202018 13 250 1.6 4.8 0.00 0.00 0.00 45 1050.0
20260501201018 13 241 1.6 6.4 0.00 0.00 0.00 45 1050.1
20260501200019 13 212 1.6 3.2 0.00 0.00 0.00 44 1050.1
20260501195019 14 212 1.6 3.2 0.00 0.00 0.00 43 1050.1
20260501194019 15 221 1.6 4.8 0.00 0.00 0.00 42 1050.0
20260501193019 15 278 3.2 8.0 0.00 0.00 0.00 41 1049.8
20260501192018 15 277 4.8 12.9 0.00 0.00 0.00 41 1049.6
20260501191019 15 269 6.4 11.3 0.00 0.00 0.00 41 1049.7
20260501190019 16 286 4.8 6.4 0.00 0.00 0.00 40 1049.8
20260501185018 16 259 4.8 6.4 0.00 0.00 0.00 40 1049.7
20260501184018 16 252 4.8 8.0 0.00 0.00 0.00 40 1049.5
20260501183019 17 274 4.8 8.0 0.00 0.00 0.00 38 1049.6
20260501182018 17 259 4.8 6.4 0.00 0.00 0.00 33 1049.4
20260501181019 18 233 4.8 8.0 0.00 0.00 0.00 32 1049.5
20260501180019 18 249 4.8 12.9 0.00 0.00 0.00 30 1049.4
20260501175018 18 272 6.4 12.9 0.00 0.00 0.00 30 1049.3
20260501174019 19 293 8.0 17.7 0.00 0.00 0.00 30 1049.4
20260501173019 19 258 6.4 12.9 0.00 0.00 0.00 30 1049.3
20260501172019 19 285 9.7 14.5 0.00 0.00 0.00 30 1049.4
20260501171018 19 282 9.7 19.3 0.00 0.00 0.00 28 1049.1
20260501170018 19 293 11.3 19.3 0.00 0.00 0.00 28 1049.5
20260501165018 20 262 6.4 17.7 0.00 0.00 0.00 28 1049.3
20260501164018 20 281 8.0 14.5 0.00 0.00 0.00 30 1049.4
20260501163019 20 267 11.3 19.3 0.00 0.00 0.00 26 1049.3
20260501162018 20 293 9.7 17.7 0.00 0.00 0.00 26 1049.4
20260501161017 20 243 9.7 17.7 0.00 0.00 0.00 26 1049.5
20260501160018 20 310 12.9 27.4 0.00 0.00 0.00 25 1049.5
20260501155018 21 273 11.3 19.3 0.00 0.00 0.00 25 1049.5
20260501154017 21 252 9.7 17.7 0.00 0.00 0.00 25 1049.5
20260501153018 20 274 12.9 20.9 0.00 0.00 0.00 24 1049.6
20260501152017 21 280 9.7 17.7 0.00 0.00 0.00 24 1049.6
20260501151017 21 281 11.3 19.3 0.00 0.00 0.00 24 1049.7